• In Hungary
  • List of Countries
  • For 7 days
  • Water Temperature
  • Satellite Maps
  • Weather Map
  • News
  • Weather Widgets
  • user-avatar
    Login

    Hourly Weather Mishina Niva

    Today, 21 October, Sunday

    Time Temperature Precipitation Wind Pressure Humidity
    00:00 +3°C° 0 mm 0 mps 745 mmHg 93%
    01:00 +3°C° 0 mm 0 mps 745 mmHg 94%
    02:00 +2°C° 0 mm 0 mps 745 mmHg 94%
    03:00 +2°C° 0 mm 0 mps 745 mmHg 94%
    04:00 +2°C° 0 mm 0 mps 745 mmHg 94%
    05:00 +2°C° 0 mm 0 mps 745 mmHg 95%
    06:00 +2°C° 0 mm 0 mps 746 mmHg 93%
    07:00 +3°C° 0 mm 0 mps 746 mmHg 92%
    08:00 +3°C° 0 mm 0 mps 746 mmHg 90%
    09:00 +5°C° 0 mm 0 mps 747 mmHg 84%
    10:00 +6°C° 0 mm 0 mps 747 mmHg 78%
    11:00 +7°C° 0 mm 0 mps 747 mmHg 72%
    12:00 +7°C° 0 mm 0 mps 747 mmHg 70%
    13:00 +9°C° 0 mm 1 mps 747 mmHg 68%
    14:00 +9°C° 0 mm 1 mps 747 mmHg 66%
    15:00 +8°C° 0 mm 1 mps 747 mmHg 72%
    16:00 +7°C° 0 mm 1 mps 747 mmHg 78%
    17:00 +6°C° 0 mm 1 mps 747 mmHg 83%
    18:00 +5°C° 0 mm 1 mps 747 mmHg 85%
    19:00 +5°C° 0 mm 1 mps 747 mmHg 88%
    20:00 +5°C° 0 mm 1 mps 747 mmHg 90%
    21:00 +4°C° 0 mm 1 mps 747 mmHg 91%
    22:00 +4°C° 0 mm 1 mps 747 mmHg 92%
    23:00 +3°C° 0 mm 2 mps 747 mmHg 93%

    Tomorrow, 22 October, Monday

    Time Temperature Precipitation Wind Pressure Humidity
    00:00 +3°C° 0 mm 2 mps 746 mmHg 92%
    01:00 +3°C° 0 mm 2 mps 746 mmHg 92%
    02:00 +2°C° 0 mm 2 mps 746 mmHg 92%
    03:00 +1°C° 0 mm 3 mps 746 mmHg 91%
    04:00 +1°C° 0 mm 3 mps 745 mmHg 90%
    05:00 +1°C° 0 mm 3 mps 745 mmHg 89%
    06:00 +2°C° 0 mm 3 mps 744 mmHg 87%
    07:00 +1°C° 0 mm 4 mps 744 mmHg 84%
    08:00 +1°C° 0 mm 4 mps 744 mmHg 82%
    09:00 +4°C° 0 mm 4 mps 743 mmHg 77%
    10:00 +5°C° 0 mm 5 mps 743 mmHg 72%
    11:00 +6°C° 0 mm 5 mps 743 mmHg 68%
    12:00 +7°C° 0 mm 5 mps 742 mmHg 67%
    13:00 +7°C° 0 mm 5 mps 741 mmHg 66%
    14:00 +8°C° 0 mm 5 mps 740 mmHg 65%
    15:00 +7°C° 0 mm 5 mps 740 mmHg 69%
    16:00 +6°C° 0 mm 5 mps 739 mmHg 72%
    17:00 +5°C° 0 mm 4 mps 739 mmHg 76%
    18:00 +5°C° 0.2 mm 4 mps 739 mmHg 78%
    19:00 +5°C° 0.2 mm 4 mps 738 mmHg 80%
    20:00 +5°C° 0.2 mm 4 mps 738 mmHg 83%
    21:00 +5°C° 0.6 mm 4 mps 737 mmHg 85%
    22:00 +5°C° 0.6 mm 4 mps 737 mmHg 87%
    23:00 +5°C° 0.6 mm 4 mps 737 mmHg 89%

    Day after tomorrow, 23 October, Tuesday

    Time Temperature Precipitation Wind Pressure Humidity
    00:00 +5°C° 0.7 mm 3 mps 736 mmHg 90%
    01:00 +5°C° 0.7 mm 3 mps 736 mmHg 90%
    02:00 +5°C° 0.7 mm 3 mps 736 mmHg 90%
    03:00 +5°C° 0.3 mm 3 mps 735 mmHg 89%
    04:00 +4°C° 0.3 mm 3 mps 735 mmHg 88%
    05:00 +4°C° 0.3 mm 3 mps 735 mmHg 87%
    06:00 +4°C° 0 mm 2 mps 735 mmHg 86%
    07:00 +4°C° 0 mm 2 mps 735 mmHg 86%
    08:00 +4°C° 0 mm 2 mps 735 mmHg 85%
    09:00 +4°C° 0 mm 2 mps 734 mmHg 79%
    10:00 +5°C° 0 mm 2 mps 734 mmHg 73%
    11:00 +6°C° 0 mm 2 mps 734 mmHg 66%
    12:00 +6°C° 0 mm 2 mps 733 mmHg 64%
    13:00 +6°C° 0 mm 2 mps 732 mmHg 62%
    14:00 +7°C° 0 mm 2 mps 732 mmHg 60%
    15:00 +6°C° 0 mm 2 mps 731 mmHg 65%
    16:00 +5°C° 0 mm 2 mps 730 mmHg 70%
    17:00 +4°C° 0 mm 2 mps 729 mmHg 74%
    18:00 +3°C° 0 mm 3 mps 728 mmHg 75%
    19:00 +3°C° 0 mm 3 mps 727 mmHg 75%
    20:00 +2°C° 0 mm 3 mps 726 mmHg 76%
    21:00 +1°C° 0 mm 4 mps 725 mmHg 76%
    22:00 +1°C° 0 mm 4 mps 724 mmHg 76%
    23:00 +1°C° 0 mm 4 mps 723 mmHg 77%

    24 October, Wednesday

    Time Temperature Precipitation Wind Pressure Humidity
    00:00 +1°C° 0.1 mm 5 mps 722 mmHg 78%
    01:00 +1°C° 0.1 mm 5 mps 721 mmHg 79%
    02:00 +1°C° 0.1 mm 5 mps 720 mmHg 79%
    03:00 +1°C° 0.4 mm 5 mps 719 mmHg 80%
    04:00 +1°C° 0.4 mm 5 mps 718 mmHg 81%
    05:00 +1°C° 0.4 mm 5 mps 718 mmHg 81%
    06:00 +1°C° 0.4 mm 5 mps 717 mmHg 81%
    07:00 +1°C° 0.4 mm 5 mps 717 mmHg 82%
    08:00 +1°C° 0.4 mm 5 mps 716 mmHg 82%
    09:00 +3°C° 0.5 mm 4 mps 716 mmHg 82%
    10:00 +3°C° 0.5 mm 4 mps 716 mmHg 82%
    11:00 +3°C° 0.5 mm 4 mps 716 mmHg 82%
    12:00 +3°C° 0.3 mm 4 mps 716 mmHg 83%
    13:00 +4°C° 0.3 mm 4 mps 716 mmHg 83%
    14:00 +4°C° 0.3 mm 3 mps 715 mmHg 84%
    15:00 +3°C° 0.3 mm 3 mps 715 mmHg 86%
    16:00 +4°C° 0.3 mm 2 mps 716 mmHg 89%
    17:00 +4°C° 0.3 mm 2 mps 716 mmHg 91%
    18:00 +4°C° 0.4 mm 2 mps 716 mmHg 92%
    19:00 +5°C° 0.4 mm 1 mps 716 mmHg 93%
    20:00 +5°C° 0.4 mm 1 mps 716 mmHg 94%
    21:00 +5°C° 0.4 mm 1 mps 716 mmHg 94%
    22:00 +5°C° 0.4 mm 1 mps 716 mmHg 95%
    23:00 +5°C° 0.4 mm 1 mps 716 mmHg 95%

    25 October, Thursday

    Time Temperature Precipitation Wind Pressure Humidity
    00:00 +5°C° 0.3 mm 1 mps 716 mmHg 95%
    01:00 +5°C° 0.3 mm 1 mps 716 mmHg 96%
    02:00 +4°C° 0.3 mm 1 mps 716 mmHg 96%
    03:00 +3°C° 0.3 mm 2 mps 716 mmHg 95%
    04:00 +3°C° 0.3 mm 2 mps 716 mmHg 95%
    05:00 +3°C° 0.3 mm 2 mps 716 mmHg 94%
    06:00 +3°C° 0.4 mm 2 mps 717 mmHg 94%
    07:00 +3°C° 0.4 mm 2 mps 717 mmHg 93%
    08:00 +3°C° 0.4 mm 2 mps 717 mmHg 92%
    09:00 +4°C° 0.3 mm 2 mps 717 mmHg 91%
    10:00 +3°C° 0.3 mm 3 mps 718 mmHg 89%
    11:00 +3°C° 0.3 mm 3 mps 718 mmHg 88%
    12:00 +3°C° 0.4 mm 3 mps 718 mmHg 87%
    13:00 +3°C° 0.4 mm 3 mps 719 mmHg 87%
    14:00 +3°C° 0.4 mm 3 mps 719 mmHg 87%
    15:00 +3°C° 0.4 mm 3 mps 719 mmHg 87%
    16:00 +3°C° 0.4 mm 3 mps 719 mmHg 88%
    17:00 +3°C° 0.4 mm 3 mps 719 mmHg 88%
    18:00 +2°C° 0.2 mm 3 mps 720 mmHg 89%
    19:00 +2°C° 0.2 mm 3 mps 720 mmHg 89%
    20:00 +2°C° 0.2 mm 3 mps 720 mmHg 89%
    21:00 +2°C° 0.1 mm 3 mps 720 mmHg 90%
    22:00 +3°C° 0.1 mm 2 mps 720 mmHg 90%
    23:00 +2°C° 0.1 mm 2 mps 720 mmHg 91%

    26 October, Friday

    Time Temperature Precipitation Wind Pressure Humidity
    00:00 +2°C° 0 mm 2 mps 720 mmHg 92%
    01:00 +1°C° 0 mm 2 mps 720 mmHg 93%
    02:00 +1°C° 0 mm 2 mps 721 mmHg 94%
    03:00 -1°C° 0 mm 2 mps 721 mmHg 95%
    04:00 -1°C° 0 mm 2 mps 721 mmHg 95%
    05:00 -1°C° 0 mm 2 mps 721 mmHg 96%
    06:00 -1°C° 0 mm 2 mps 722 mmHg 95%
    07:00 -1°C° 0 mm 2 mps 722 mmHg 94%
    08:00 -1°C° 0 mm 2 mps 723 mmHg 94%
    09:00 +1°C° 0 mm 2 mps 723 mmHg 90%
    10:00 +2°C° 0 mm 2 mps 723 mmHg 85%
    11:00 +3°C° 0 mm 2 mps 724 mmHg 81%
    12:00 +3°C° 0.1 mm 2 mps 724 mmHg 80%
    13:00 +4°C° 0.1 mm 2 mps 724 mmHg 78%
    14:00 +3°C° 0.1 mm 3 mps 724 mmHg 76%
    15:00 +3°C° 0.1 mm 2 mps 724 mmHg 81%
    16:00 +2°C° 0.1 mm 2 mps 725 mmHg 85%
    17:00 +3°C° 0.1 mm 1 mps 725 mmHg 90%
    18:00 +2°C° 0 mm 2 mps 725 mmHg 91%
    19:00 +1°C° 0 mm 2 mps 725 mmHg 92%
    20:00 +1°C° 0 mm 2 mps 726 mmHg 93%
    21:00 +1°C° 0 mm 2 mps 726 mmHg 94%
    22:00 -1°C° 0 mm 2 mps 726 mmHg 95%
    23:00 -1°C° 0 mm 2 mps 726 mmHg 96%
    Show more